Location: Springfield
(37.2150°N, 93.2980°W)
Time: 23:32:03
(UTC-05:00)

Tiangong 2 - Pass Details

Date: 02 May 2019
Orbit: 379 x 387 km, 42.8° (Epoch: 26 May)

Event Time Altitude Azimuth Distance (km) Brightness Sun altitude
Exits shadow 05:46:38 - 235° (SW) 1,524 3.4 -6.5°
Reaches altitude 10° 05:46:58 10° 234° (SW) 1,393 3.2 -6.5°
Maximum altitude 05:50:04 62° 152° (SSE) 433 1.3 -5.9°
Drops below altitude 10° 05:53:12 10° 71° (ENE) 1,404 5.8 -5.3°
Sets 05:55:18 0° 68° (ENE) 2,262 8.1 -5.0°
